Theta_e
287 287 287 286 286 286 286 285 284 284 283 283 282 283 283 284 284 285 285 284 283 282 281 280 279 278 277 276 275 275 275 274 274 274 274 275 275 276 277 278 279 281 285 288 289 290 291 292 293 294 294 294 295 295 295 296 297 299 300 301 303 304 304 310 318 318 317 320 320 320 321 320 321 318 316 316 317 317 317 317 318 318 319 318 317
287 286 286 286 286 285 285 285 284 283 283 283 282 283 283 284 284 284 284 283 282 280 279 278 278 277 275 274 274 274 274 274 274 274 274 275 275 275 276 278 279 281 284 286 289 290 290 291 292 293 294 294 294 295 295 296 297 298 301 301 303 305 304 308 317 318 316 318 319 320 320 320 320 317 315 315 316 316 316 315 315 315 316 317 316
286 286 286 286 285 285 285 284 284 283 283 283 283 283 284 284 284 284 283 282 280 278 277 275 276 275 273 273 272 272 272 273 273 273 274 275 275 275 276 277 278 280 283 285 288 290 290 290 291 293 293 293 294 295 295 296 297 298 300 301 303 305 305 307 315 318 315 316 317 318 319 319 319 318 315 315 315 315 315 313 312 312 312 312 313
286 286 286 285 285 285 284 284 283 283 283 283 283 283 284 284 284 283 282 280 278 277 276 275 275 274 272 271 271 270 271 272 272 273 273 274 275 275 275 276 277 279 281 284 287 289 290 289 290 292 292 292 293 294 295 296 296 298 300 302 304 305 305 308 314 317 315 315 316 317 318 318 318 318 316 315 315 314 313 313 311 311 312 312 310
286 285 285 285 285 284 284 284 283 283 283 283 283 284 284 284 283 282 281 279 278 276 275 274 274 273 271 270 270 269 270 270 271 272 273 273 274 275 276 276 277 278 279 282 286 288 289 289 290 291 291 292 293 294 295 295 296 298 299 302 305 305 305 309 314 315 315 315 316 316 317 317 317 317 317 316 316 315 314 313 311 312 313 312 309
286 285 285 285 284 284 284 283 283 283 282 283 283 283 283 283 283 281 280 279 278 276 275 274 274 273 271 270 270 270 270 270 270 270 271 272 273 275 277 277 277 278 279 281 284 286 288 289 290 290 291 292 293 294 294 295 296 298 299 302 304 304 306 312 314 314 315 316 316 316 316 316 317 317 316 316 315 316 316 314 314 314 313 311 308
285 285 285 284 284 284 283 283 282 282 282 282 283 283 283 282 281 280 279 278 277 275 274 273 273 272 271 271 271 271 271 270 270 270 271 272 273 275 278 278 278 278 279 280 282 285 288 289 290 290 290 292 293 294 294 295 296 297 299 302 303 304 308 313 314 314 315 315 315 316 316 316 317 316 316 316 315 315 316 315 316 315 312 309 308
285 285 285 284 284 283 282 282 282 282 282 282 282 282 282 282 280 280 279 277 276 274 272 272 272 271 270 271 272 271 270 270 270 270 271 272 273 275 277 278 279 279 279 280 282 284 287 289 290 290 290 292 293 294 294 295 295 297 299 302 303 304 309 313 314 314 314 314 314 315 315 315 315 315 316 315 315 315 315 314 315 315 312 309 307
285 285 284 284 283 282 281 281 281 281 281 282 282 282 282 281 280 280 278 277 275 274 272 271 271 270 270 270 271 271 270 270 271 271 271 272 273 273 275 277 278 279 279 280 281 283 286 289 290 290 290 292 293 294 294 295 295 296 299 301 302 305 311 313 313 313 313 313 313 313 313 313 313 314 314 314 314 314 315 314 314 314 314 311 308
285 285 284 283 282 281 281 280 280 281 281 281 282 282 282 281 280 280 279 277 275 273 272 271 270 270 270 270 271 270 270 271 272 271 271 272 273 273 274 275 276 277 278 279 280 282 284 288 291 291 291 292 294 294 294 295 295 296 298 300 302 305 311 314 313 313 313 312 312 312 312 312 313 314 315 315 314 314 314 314 314 314 314 313 310
285 284 283 282 281 280 280 280 280 281 281 281 281 282 282 281 280 280 279 277 275 273 272 271 271 271 270 270 271 271 272 273 273 272 271 272 274 274 275 275 276 276 277 278 279 281 284 287 290 291 291 293 294 294 294 295 296 296 298 300 301 303 309 314 313 313 313 312 312 312 312 312 313 315 316 315 315 315 314 314 314 314 314 313 311
285 284 283 282 280 280 279 280 280 281 281 281 281 282 282 281 280 279 279 277 275 273 272 271 272 272 271 271 271 272 273 274 273 272 272 273 274 275 275 275 275 275 276 277 279 281 284 286 288 290 291 293 294 294 294 294 295 297 298 301 302 302 307 313 314 313 313 313 312 313 313 313 313 314 315 315 315 315 315 314 314 314 313 312 311
285 284 282 281 280 279 279 279 280 280 281 281 281 282 281 281 280 278 278 277 275 274 274 273 272 273 272 272 273 273 274 274 274 274 274 274 274 275 275 275 275 275 276 277 278 280 282 284 286 288 291 292 293 294 294 294 295 297 299 301 302 302 306 313 315 314 315 314 313 313 314 314 314 314 315 315 315 315 314 314 314 314 313 312 311
284 283 281 280 279 279 279 279 280 280 280 280 281 281 281 280 279 277 276 276 276 275 275 274 273 273 273 273 274 275 275 276 276 276 276 275 275 275 275 275 275 276 276 277 278 279 281 283 285 287 290 292 293 293 294 294 294 297 299 301 302 303 306 312 314 315 315 315 314 314 315 315 316 316 315 315 315 315 314 314 314 313 312 311 312
284 282 281 279 278 278 278 279 279 280 280 280 281 281 280 278 277 276 275 275 275 275 274 273 273 274 274 274 274 275 276 277 277 277 277 276 276 276 276 276 276 276 276 277 278 279 281 282 284 286 288 291 292 292 293 293 294 295 298 300 302 304 307 311 314 314 315 314 314 315 315 315 316 316 315 315 316 315 315 314 313 311 310 311 312
283 281 280 278 278 278 278 279 279 279 279 280 280 280 279 277 276 275 274 274 274 274 273 272 272 273 274 275 275 275 277 279 278 278 278 278 277 276 276 276 276 276 277 277 279 280 281 282 283 284 287 289 291 291 292 293 293 295 297 300 302 304 307 311 313 313 314 314 314 314 315 316 317 317 317 317 316 315 314 313 311 309 309 310 310
282 280 279 277 277 277 278 278 279 279 279 279 280 279 278 276 274 273 273 274 273 273 273 272 271 272 273 274 275 275 277 280 280 279 278 278 278 277 276 276 276 276 277 277 279 280 282 282 282 284 286 288 290 290 291 292 293 294 296 299 301 303 307 311 312 313 314 314 314 314 315 316 317 317 318 317 316 315 314 312 310 309 308 308 308
280 279 278 277 277 277 277 278 278 278 278 278 279 278 277 275 274 273 273 273 273 273 272 271 271 272 273 274 275 275 276 279 280 279 279 279 278 277 277 276 276 277 278 278 279 280 281 282 283 284 285 288 289 290 291 292 293 294 296 298 300 302 306 310 312 312 313 313 313 313 314 316 317 318 318 317 316 316 315 313 311 309 307 307 307
279 278 277 276 276 276 277 277 277 277 277 278 277 277 276 275 273 273 273 272 273 272 270 269 270 271 272 274 275 274 275 277 278 278 278 279 279 279 278 277 277 278 279 279 279 280 281 282 282 283 285 287 289 290 291 292 292 294 295 297 299 301 305 309 311 311 311 311 311 312 313 315 316 316 316 316 316 316 316 315 313 310 308 306 306
278 277 276 276 276 276 276 277 277 277 277 277 277 276 275 274 273 273 272 272 272 271 269 268 269 270 272 272 273 274 274 275 276 277 278 279 280 280 280 278 278 279 281 281 280 281 282 282 282 284 285 287 288 289 290 292 292 293 295 297 298 301 305 309 310 311 311 310 311 312 312 312 312 312 314 316 316 316 316 315 313 312 309 306 306
277 276 276 275 275 276 276 277 277 276 276 276 276 276 275 274 273 272 272 272 271 269 268 268 269 270 271 272 272 273 274 274 276 278 280 280 280 281 281 280 280 281 282 282 281 281 282 282 282 284 286 287 288 289 290 292 292 293 295 298 298 300 304 308 310 311 311 310 311 311 310 310 310 310 312 314 315 315 315 314 313 313 311 308 307
276 276 275 275 275 275 276 276 276 276 275 275 276 276 275 275 274 272 271 271 270 268 267 268 269 270 271 272 272 273 273 274 275 278 280 280 280 281 282 282 282 282 282 283 283 282 282 282 283 284 285 287 287 288 290 292 292 293 295 297 298 299 302 307 309 309 309 309 309 309 308 308 309 310 312 314 314 314 314 314 313 312 312 311 310
276 275 275 275 275 275 275 276 276 276 275 275 275 276 275 275 274 272 270 269 268 267 268 268 269 270 271 272 272 272 273 274 275 277 279 280 280 282 283 283 283 283 282 283 284 284 283 282 283 284 285 287 287 288 290 292 292 293 295 296 298 299 302 305 307 308 308 308 308 308 308 308 309 310 311 313 313 314 314 313 313 312 311 311 312
275 275 274 274 274 275 275 275 275 275 275 275 275 275 275 274 274 273 271 269 268 267 268 268 269 270 271 271 272 271 271 273 274 275 277 279 281 282 283 284 285 284 283 284 285 285 284 283 284 284 285 287 287 288 290 291 291 292 294 296 298 300 301 303 306 307 307 307 307 307 308 308 310 311 312 312 313 313 313 313 312 311 310 310 310
274 274 274 274 274 274 275 274 275 275 275 274 274 275 274 274 274 272 271 270 268 268 268 268 269 270 271 271 271 271 270 271 273 274 275 278 280 282 283 284 285 285 285 285 285 286 285 285 284 285 286 287 287 289 290 291 291 293 295 297 299 300 301 303 305 306 306 306 307 307 308 309 310 311 311 312 312 311 311 311 310 310 309 309 309
274 274 274 274 274 274 274 274 274 275 275 274 274 274 274 274 273 271 270 270 269 268 268 268 268 269 271 271 270 270 270 271 272 273 274 276 279 282 285 286 287 287 287 287 286 287 286 286 285 286 287 287 288 289 290 291 292 293 295 297 299 300 301 303 304 305 306 307 307 307 308 309 310 309 309 309 310 311 311 310 310 309 309 309 309
274 274 273 273 274 274 274 274 274 274 275 275 274 273 273 274 273 271 270 269 269 268 268 268 268 269 270 270 269 269 270 271 272 273 274 274 277 281 284 286 288 289 289 289 288 287 287 286 286 286 287 288 289 290 291 291 293 294 296 297 299 300 301 302 305 306 308 308 307 307 307 307 307 307 307 308 309 311 311 311 310 309 308 308 308
273 273 273 273 273 273 273 273 273 274 274 274 274 273 273 273 273 272 270 269 268 268 268 268 268 269 270 270 269 269 270 271 272 273 274 274 275 279 283 285 287 289 290 290 290 289 289 288 287 287 288 289 289 290 291 292 293 295 297 298 300 300 301 302 305 307 308 308 307 306 305 305 306 306 307 307 308 309 310 310 310 309 308 307 307
273 273 273 273 273 273 273 273 273 273 273 273 274 274 272 272 272 272 272 270 269 268 268 268 268 269 270 269 269 269 269 270 272 273 273 274 275 278 281 284 287 289 291 291 290 290 290 289 288 288 289 290 290 291 292 293 294 296 298 299 300 300 301 302 304 305 307 307 306 305 305 305 305 306 307 307 307 308 309 309 309 308 307 306 307
273 273 273 273 273 273 272 272 272 272 272 272 273 273 273 273 272 272 272 272 271 270 270 269 269 269 269 269 269 269 269 270 271 272 273 274 277 279 281 285 288 291 292 292 291 291 291 290 290 290 290 290 291 292 293 293 295 296 298 299 300 299 300 302 304 305 305 306 306 305 305 305 305 305 306 306 306 307 308 308 307 307 306 306 306
272 272 272 272 272 272 272 272 272 272 272 272 272 273 274 274 273 273 272 273 273 272 272 272 271 270 269 269 269 269 269 269 270 271 272 275 278 280 282 286 290 292 293 293 292 291 292 292 291 291 291 292 292 293 293 294 295 297 298 299 299 299 300 302 303 304 304 305 305 305 305 305 305 305 305 306 306 306 306 306 305 306 306 307 306
272 272 272 272 272 272 271 271 271 272 272 272 271 272 272 273 274 274 274 273 273 272 272 273 273 272 270 270 269 269 268 268 269 270 272 275 278 280 282 285 289 292 293 293 292 292 292 293 293 293 293 293 294 294 294 294 296 297 298 299 299 300 300 301 303 303 304 304 305 305 305 305 306 305 306 306 306 305 305 304 304 305 306 306 306
272 272 271 271 271 271 271 271 271 271 271 271 271 271 271 271 272 273 274 275 275 274 273 273 273 273 272 271 271 270 269 269 269 271 272 275 277 279 281 283 286 290 292 292 291 291 292 292 293 293 294 294 295 295 295 295 296 297 298 298 299 300 301 301 302 303 303 304 304 304 304 305 305 305 305 305 305 305 305 304 304 304 304 305 305
271 271 271 271 271 271 271 271 270 271 271 271 271 271 271 270 270 271 272 273 274 275 275 274 273 273 272 271 271 271 270 270 270 270 272 274 275 277 280 283 284 287 288 288 288 288 289 291 292 292 293 294 295 296 297 296 296 297 298 299 299 300 300 301 302 303 303 303 304 304 304 304 305 305 304 304 304 305 305 305 304 304 304 305 305
271 271 271 271 271 270 270 270 270 270 270 270 270 270 270 270 270 270 270 270 271 272 273 273 273 272 271 271 271 272 271 271 270 270 271 273 275 278 281 282 282 282 283 283 283 284 285 288 289 291 292 293 294 295 297 298 298 298 298 299 299 300 300 301 302 302 303 303 303 303 304 304 305 305 305 304 304 304 304 304 304 304 305 305 304
270 270 270 270 270 270 270 270 270 270 270 270 270 270 270 270 270 269 269 269 269 269 270 271 272 273 272 271 271 272 272 271 270 270 271 273 274 277 277 276 275 276 277 278 279 281 282 284 286 288 290 292 294 295 296 297 298 299 299 299 299 299 300 301 301 302 302 303 303 303 303 304 304 304 304 304 304 304 305 304 304 304 305 305 305
270 270 270 270 270 270 269 269 269 269 269 270 270 270 270 270 270 269 269 269 269 269 269 270 271 273 273 272 272 272 273 272 272 273 274 275 275 275 273 272 272 273 274 274 276 278 279 280 283 285 288 290 292 294 295 296 297 298 299 299 299 299 300 301 301 302 302 302 302 302 303 303 303 303 303 303 303 304 304 305 304 304 305 306 306
270 270 270 270 269 269 269 269 269 269 269 269 269 270 270 270 270 269 269 269 269 268 269 269 269 270 271 271 270 271 273 274 274 275 275 275 274 273 271 270 271 272 272 272 274 275 276 277 280 282 284 287 290 292 294 296 297 298 298 299 299 300 300 300 301 301 302 302 302 302 302 303 303 303 303 303 303 303 303 304 303 303 303 304 304
269 269 269 269 269 269 269 269 269 269 269 269 269 269 269 269 269 269 269 269 269 268 268 268 268 268 269 269 269 270 272 273 273 273 273 272 272 271 270 269 270 270 271 271 272 273 274 275 277 279 281 284 287 290 293 295 296 297 298 299 299 300 300 300 300 301 301 301 302 302 302 302 302 303 303 303 304 304 303 303 303 303 303 303 304
269 269 269 269 269 269 269 269 269 269 269 269 269 269 269 269 269 269 269 268 268 268 268 267 267 268 268 267 267 269 270 270 270 271 272 272 272 271 270 269 268 269 269 270 271 271 272 273 275 276 279 281 283 287 290 293 295 297 298 299 299 300 300 300 300 301 301 301 302 302 302 302 302 302 302 303 303 303 303 303 303 303 303 305 306
269 269 269 269 269 269 268 268 268 268 268 268 268 268 268 268 268 268 268 268 268 268 268 268 267 268 268 268 268 269 269 269 270 271 271 272 272 271 270 269 268 268 268 269 269 270 270 271 273 274 276 278 281 283 286 290 293 296 297 298 299 299 300 300 300 300 301 301 301 301 302 302 302 302 302 302 303 303 303 303 302 302 302 304 305
268 268 268 268 268 268 268 268 268 268 268 268 268 268 268 268 268 268 268 268 268 268 268 268 268 268 268 268 269 269 269 269 269 270 271 271 272 272 271 270 269 268 268 268 268 269 269 270 271 272 274 276 279 281 284 287 289 292 294 296 297 298 299 299 299 300 300 300 301 301 301 301 301 302 302 302 302 301 301 301 301 301 301 302 303
268 268 268 268 268 268 268 268 268 268 268 268 268 268 268 268 268 268 268 268 267 267 268 268 268 268 268 268 269 269 269 269 269 269 270 270 271 272 272 272 270 269 269 268 268 269 269 270 271 271 272 274 276 278 281 283 285 288 290 293 295 297 298 298 299 299 299 299 300 300 301 301 301 301 301 301 301 301 301 301 300 301 300 300 301
268 268 268 268 268 268 268 268 268 268 268 267 267 267 267 267 267 267 268 268 267 267 267 267 268 268 268 268 268 269 269 269 268 268 269 269 270 271 272 272 272 271 270 269 269 269 270 270 271 272 273 274 276 277 279 281 283 285 287 289 291 294 295 297 298 299 299 299 299 300 300 300 301 301 301 301 301 301 300 300 300 300 300 300 299
267 267 267 267 267 267 267 267 267 267 267 267 267 267 267 267 267 267 267 267 267 267 267 267 267 267 268 268 268 268 268 268 268 268 268 269 269 270 270 271 271 271 271 270 270 270 270 270 271 272 273 275 276 277 278 280 281 283 285 287 289 291 292 294 295 297 298 299 299 299 299 300 300 300 300 300 300 300 300 300 300 300 300 299 299
267 267 267 267 267 267 267 267 267 267 267 267 267 267 267 267 267 267 267 267 267 267 267 267 267 267 267 267 267 268 268 268 267 267 267 268 268 269 270 270 271 271 271 271 270 270 270 270 270 271 273 274 275 276 277 278 280 282 283 285 287 288 290 292 293 295 296 297 298 299 299 299 299 299 299 299 299 299 299 299 299 299 299 299 299
267 267 267 267 267 267 267 267 267 267 267 267 267 267 267 267 267 267 267 267 267 267 267 267 267 267 267 267 267 267 267 267 267 267 267 267 268 268 269 270 270 271 271 271 271 271 271 270 270 271 272 273 274 275 276 277 279 280 281 283 284 286 288 290 292 294 295 296 297 297 298 298 298 298 298 298 298 298 298 298 298 298 298 299 298
267 267 267 267 267 267 267 267 267 267 267 267 267 267 267 267 267 267 267 267 267 267 267 267 266 266 266 267 267 267 267 267 267 267 267 267 267 267 268 269 269 270 270 270 270 270 270 270 270 271 272 273 273 274 275 276 277 278 280 281 282 284 286 288 290 292 293 295 296 296 297 297 298 298 298 298 298 298 298 298 298 298 298 298 297
267 267 267 267 267 267 267 267 267 267 267 267 267 267 267 267 267 267 267 267 267 267 267 267 267 266 266 266 266 267 267 267 267 267 267 267 267 267 267 268 269 269 270 270 270 269 269 269 269 269 270 272 272 273 273 274 276 277 278 279 281 282 284 286 288 290 291 293 294 295 296 296 297 297 297 297 297 297 297 297 297 297 297 297 297
267 267 267 267 267 267 267 267 267 267 267 267 267 267 267 267 267 267 267 267 267 266 266 266 266 266 266 266 266 266 267 267 267 267 267 267 267 267 267 267 268 268 269 269 269 269 269 269 269 269 269 270 271 272 272 273 274 275 276 278 279 281 283 284 285 287 288 290 291 293 294 295 295 296 296 296 296 297 297 297 297 297 297 297 296
266 266 266 266 266 266 267 266 266 266 267 267 267 267 267 267 267 267 267 267 267 266 266 266 266 266 266 266 266 266 266 266 267 267 267 267 266 266 266 267 267 268 268 269 269 269 269 268 268 268 268 269 269 270 271 272 273 274 275 276 278 279 280 282 283 284 286 287 288 290 291 292 293 294 294 294 295 295 296 296 296 296 296 296 296
Wind_Speed
31 33 35 36 37 38 39 40 41 43 44 45 46 47 47 47 49 50 51 51 50 49 50 49 47 47 47 48 46 44 43 42 41 41 41 41 41 41 41 40 40 41 43 43 38 31 27 27 31 36 36 34 31 31 34 36 37 36 40 47 54 55 51 45 51 53 51 57 60 63 68 70 67 65 63 62 59 56 54 53 53 53 54 54 52
32 34 35 37 38 39 40 41 42 44 45 46 47 47 48 48 49 50 52 52 50 48 48 48 47 46 47 47 46 43 42 41 40 39 39 39 39 41 42 40 40 41 43 44 41 33 26 26 31 35 35 33 31 30 32 34 35 35 39 45 52 55 52 47 51 57 53 56 61 64 68 69 68 66 65 65 63 61 58 56 54 53 53 53 52
32 35 36 37 38 39 40 42 43 44 45 46 47 48 48 49 50 50 51 51 50 48 46 46 46 46 47 46 45 44 39 35 33 34 35 35 35 37 37 35 35 38 42 45 43 36 28 25 30 34 33 31 30 30 32 34 34 35 38 44 51 53 51 47 47 57 56 55 61 66 68 68 69 69 67 65 64 63 61 59 57 56 55 55 53
33 35 37 38 39 39 41 42 43 45 46 47 48 48 49 50 50 50 50 50 49 49 47 46 46 46 45 42 41 41 38 34 31 31 31 33 32 33 34 33 32 34 39 44 44 39 33 27 28 32 30 29 30 30 32 34 34 36 37 42 50 51 48 48 48 57 58 56 59 67 72 69 68 69 68 65 65 64 63 61 60 58 56 57 55
33 36 37 38 39 40 41 42 44 45 46 47 47 48 49 50 50 49 50 49 49 49 48 46 45 45 43 39 37 39 39 38 35 32 31 33 34 35 38 39 39 38 39 44 45 41 37 31 28 29 29 29 30 29 30 32 33 35 36 41 48 46 45 49 53 56 61 61 60 64 70 70 67 67 69 69 67 65 63 62 62 60 57 57 56
34 36 38 39 40 41 42 43 44 45 46 47 47 48 48 49 49 48 48 49 49 48 47 45 43 44 42 39 38 38 38 36 35 35 34 35 36 36 37 40 42 42 41 43 45 43 40 35 30 28 29 30 30 29 29 29 31 32 34 40 45 42 43 52 57 56 61 65 63 64 66 66 65 65 69 72 70 67 65 62 62 62 61 58 56
35 37 39 40 41 42 42 44 45 45 46 47 47 47 47 47 48 47 47 48 47 46 46 44 43 43 42 39 38 37 36 35 34 35 35 34 35 34 33 36 41 42 40 41 44 44 42 38 31 28 31 33 31 30 29 28 30 30 33 38 40 39 44 54 60 59 62 63 63 65 66 66 67 67 70 73 72 70 68 64 62 62 63 61 59
36 37 39 40 41 42 42 43 44 45 46 46 46 46 46 46 46 47 47 47 46 45 44 44 43 43 42 40 38 36 35 35 34 34 34 33 32 32 31 33 38 41 40 39 42 44 44 40 35 32 34 35 32 30 29 29 29 30 32 35 34 38 46 55 59 62 64 61 61 65 65 64 64 66 69 69 67 67 68 68 66 64 63 62 61
37 38 39 40 41 42 42 43 44 44 45 46 46 46 46 46 46 46 46 46 46 45 43 43 43 43 42 40 38 37 36 37 36 34 34 32 31 31 31 31 33 36 37 36 38 43 44 43 40 36 34 35 33 31 29 29 29 30 31 30 27 36 50 56 57 63 65 61 62 63 62 62 62 63 67 68 68 68 68 68 67 65 65 63 62
37 39 40 40 41 41 42 42 43 44 45 45 45 46 46 46 46 46 46 46 45 45 44 42 41 42 41 39 37 37 37 39 38 34 32 31 31 31 32 32 31 31 33 34 36 40 43 44 43 39 36 35 33 32 30 30 29 29 31 29 24 33 52 59 56 63 67 62 62 62 60 61 63 67 72 72 72 71 68 66 64 64 65 63 62
38 39 40 41 41 41 42 42 43 43 44 44 45 46 46 47 47 47 47 46 45 44 44 42 39 39 39 38 38 37 37 38 37 35 32 31 32 33 33 34 34 34 34 34 35 37 40 45 45 42 41 38 35 33 31 31 31 30 32 33 28 31 50 64 59 61 66 64 63 64 64 64 67 73 76 72 70 71 70 69 67 66 66 65 63
38 40 40 40 41 41 41 42 43 44 44 45 45 46 47 48 48 48 48 47 46 44 42 40 38 36 36 36 36 37 37 37 35 34 33 32 32 34 34 35 36 38 36 33 33 34 36 43 45 43 43 41 37 36 33 31 32 30 30 35 35 32 47 69 68 64 68 67 65 67 68 70 71 73 76 73 71 72 71 69 69 70 71 69 67
38 40 40 40 40 41 41 42 43 44 44 45 46 47 49 49 49 49 48 48 46 44 41 39 37 36 36 36 36 35 36 36 35 34 33 32 32 33 33 35 36 37 35 33 33 33 34 39 44 44 43 42 40 39 37 34 33 29 27 33 38 36 46 70 74 71 73 71 70 73 74 75 75 76 78 78 76 73 70 70 72 73 73 71 68
38 40 40 40 40 40 41 42 43 44 44 45 46 47 49 50 50 49 48 48 47 45 42 39 36 35 35 36 36 35 35 34 33 33 31 30 31 32 32 33 35 36 35 33 34 37 38 40 43 43 43 43 42 42 41 36 33 29 25 28 36 38 47 68 73 72 75 73 73 76 76 77 79 80 80 79 77 77 75 74 74 73 72 69 65
38 39 39 39 39 39 41 42 42 44 44 45 46 47 49 50 50 50 49 48 47 46 44 41 39 38 36 35 35 36 35 32 32 32 31 29 30 31 31 32 34 36 35 33 32 35 38 39 41 43 44 45 44 44 42 38 33 30 25 25 32 37 49 69 72 71 74 72 72 75 74 75 79 80 80 78 77 77 76 74 73 70 68 64 59
37 38 38 38 38 38 40 41 42 43 44 45 46 48 49 50 50 49 49 48 47 46 44 41 41 41 39 36 36 37 34 29 29 30 30 28 28 29 30 31 33 35 36 34 31 32 34 36 38 41 44 45 45 44 43 39 35 31 26 23 27 32 49 70 72 70 73 71 70 73 72 73 76 78 80 79 76 74 72 69 68 67 66 62 56
36 37 37 36 37 37 39 40 41 42 43 45 46 48 49 50 49 47 47 47 46 44 42 40 40 41 40 37 36 37 34 28 25 28 29 28 27 27 28 30 32 34 36 35 32 31 33 35 37 40 43 44 45 44 42 40 37 33 27 21 22 28 47 67 71 71 73 71 71 72 72 74 75 76 79 79 76 75 72 68 68 68 67 61 56
35 36 35 35 36 36 37 38 40 41 42 44 45 47 48 48 47 46 44 44 44 42 41 42 43 42 38 35 34 36 36 29 26 28 30 28 27 28 29 30 31 32 34 34 32 31 33 35 35 37 40 43 44 43 42 40 39 34 27 21 19 26 45 62 67 69 70 69 70 71 71 75 75 75 77 78 76 75 73 72 72 71 68 65 63
34 34 34 34 34 35 36 36 37 39 41 42 43 45 47 47 46 44 42 42 41 41 41 43 45 44 39 37 36 37 37 34 31 32 32 29 27 28 29 31 32 32 32 32 31 31 33 34 33 33 36 40 42 42 42 42 40 34 27 20 18 26 44 59 65 67 66 63 65 67 68 72 74 74 77 77 75 73 72 73 75 73 70 69 66
33 32 32 33 33 33 34 35 36 37 39 40 42 43 44 46 46 43 42 41 40 40 41 43 46 44 40 41 41 38 36 36 36 35 30 25 25 26 28 31 32 32 32 31 31 31 31 33 35 33 33 36 38 40 41 42 39 34 27 21 19 26 42 58 65 68 66 62 63 66 66 67 68 69 73 75 73 71 71 73 75 75 74 71 67
31 31 31 31 31 31 32 33 34 36 37 38 40 41 43 45 45 43 42 41 40 41 43 44 44 42 41 43 42 37 36 37 37 34 25 20 22 25 27 31 33 32 32 32 32 33 34 35 36 33 30 31 34 37 39 40 38 33 28 25 21 24 38 55 63 65 65 63 62 62 62 62 63 65 70 72 70 70 72 74 75 76 76 75 73
29 29 29 29 30 30 31 32 33 35 35 37 39 41 42 43 44 43 42 41 42 43 44 45 43 40 43 45 41 38 40 41 38 34 27 23 24 23 24 29 33 32 33 33 32 33 35 36 33 28 25 27 29 32 36 38 36 33 29 27 22 20 31 49 58 59 60 61 59 57 57 59 61 64 68 71 69 69 72 75 76 77 77 77 78
27 27 28 28 29 29 30 31 33 34 34 36 38 40 42 43 43 43 42 42 43 44 46 46 41 41 45 45 40 42 47 44 39 35 31 28 25 21 18 22 28 32 34 34 32 32 31 31 30 26 23 23 25 28 32 35 35 33 29 26 22 20 27 41 53 57 57 58 57 55 56 58 62 65 68 71 72 71 71 73 76 78 76 75 76
25 25 26 27 27 28 29 31 32 33 34 35 36 39 41 42 43 43 42 42 43 46 48 46 41 43 47 44 42 46 50 46 41 38 35 33 28 22 17 15 17 26 34 35 33 32 31 29 27 25 23 22 22 24 29 31 32 31 27 24 23 23 26 38 51 56 55 55 55 55 57 60 64 66 68 71 72 70 69 70 73 75 74 71 70
23 24 25 26 27 28 29 30 31 32 34 34 35 37 40 42 42 42 42 41 43 47 49 45 42 45 47 42 42 48 48 45 44 43 40 36 30 24 19 14 11 16 27 35 35 33 30 27 25 22 21 21 20 22 26 28 28 28 26 23 22 22 27 40 52 55 55 56 56 58 61 63 65 67 68 70 70 69 68 69 69 70 70 67 65
22 23 24 25 26 28 30 30 30 32 33 34 34 35 37 41 41 41 41 41 42 46 47 43 42 45 44 40 42 46 45 44 46 47 46 43 36 28 22 17 12 11 17 27 34 33 28 25 24 22 20 19 19 20 24 25 25 25 25 22 21 22 30 44 53 55 58 59 59 61 63 64 65 65 64 67 69 68 69 70 68 68 69 67 64
21 22 23 25 26 28 29 30 31 32 33 34 35 34 34 37 40 40 41 41 41 43 44 43 42 43 43 43 45 46 44 45 48 48 48 46 43 36 28 21 16 13 13 17 24 29 28 26 25 22 20 19 19 19 21 22 23 25 24 22 21 24 33 46 55 59 61 62 61 60 60 60 61 61 62 65 68 68 69 70 68 67 68 67 63
20 21 22 24 26 27 28 30 31 32 32 33 35 36 36 37 38 39 39 39 39 40 41 40 41 41 42 45 48 47 44 45 47 47 45 43 42 40 35 29 24 17 13 14 17 21 23 24 24 22 20 20 19 19 21 23 24 24 23 22 23 27 35 46 55 58 60 59 57 54 53 55 58 61 63 65 67 68 68 68 67 68 67 64 61
18 20 21 23 25 26 27 29 30 32 32 32 32 34 35 36 37 37 37 36 35 35 35 37 39 39 40 44 47 46 44 45 45 43 41 37 34 32 30 29 28 20 11 10 14 19 21 21 22 21 20 21 20 20 21 24 24 24 24 22 22 28 37 46 52 55 55 55 54 52 53 56 58 61 63 64 65 66 66 66 66 65 65 65 62
17 19 21 23 24 26 27 28 29 31 32 33 33 32 32 32 33 35 35 35 34 34 34 34 35 37 38 42 43 39 38 41 42 40 37 32 26 21 18 20 22 16 9 8 12 19 22 21 21 20 20 20 21 21 23 25 24 24 25 23 22 29 40 48 53 54 54 55 56 57 58 59 59 60 62 63 63 63 65 65 65 64 64 65 63
16 18 20 22 24 25 26 28 29 30 31 33 35 35 34 32 32 33 33 33 34 36 36 36 37 39 40 42 42 36 34 37 40 38 34 29 22 18 14 13 13 9 7 8 12 17 20 20 20 21 21 22 22 22 23 24 24 25 26 23 24 32 43 50 53 54 53 55 57 59 59 60 60 60 62 62 62 62 62 62 62 63 65 66 64
16 18 19 21 22 24 25 27 28 30 31 32 34 36 38 38 37 35 34 34 35 37 38 38 40 43 45 45 43 40 37 37 38 36 32 27 22 18 17 14 9 7 8 9 11 14 17 18 19 21 22 23 24 23 23 24 24 26 26 24 26 36 46 51 53 54 54 55 58 59 59 61 62 62 63 63 62 62 61 61 62 62 63 63 62
15 16 18 19 21 23 24 26 27 29 31 32 33 35 37 40 41 41 40 38 36 37 39 41 42 44 48 49 46 43 39 37 36 34 31 27 22 18 16 15 10 1 7 9 9 10 11 13 16 19 22 24 25 24 24 24 25 27 27 27 29 38 47 51 53 54 54 55 57 58 59 60 60 61 61 62 62 62 63 63 63 62 61 61 60
14 15 17 19 21 22 24 25 26 28 29 30 32 33 34 36 39 42 44 44 43 41 41 43 44 46 48 50 49 47 44 39 37 36 33 29 26 19 12 7 7 9 9 8 6 3 4 7 10 13 17 22 24 25 25 25 26 28 29 28 31 38 45 49 51 53 53 53 55 57 57 58 58 59 59 60 61 62 63 64 64 62 62 62 60
12 14 16 18 19 21 23 24 25 26 28 29 30 31 33 34 35 38 41 43 45 46 45 45 45 46 49 50 50 50 49 45 42 40 36 33 30 21 11 8 13 17 17 16 14 10 6 1 4 8 12 17 20 23 25 25 27 29 30 30 32 38 43 46 49 53 53 53 53 55 57 58 59 60 60 60 60 61 62 64 65 65 64 63 59
10 12 14 16 17 19 21 22 24 25 26 27 28 29 30 32 33 35 37 39 41 43 45 46 45 45 47 49 50 49 50 50 47 44 40 37 33 30 28 31 33 31 28 26 22 18 15 10 3 3 8 13 17 21 23 25 27 29 30 31 34 38 43 48 51 53 53 53 53 54 56 57 58 59 60 61 62 63 64 64 65 64 63 62 59
9 11 12 14 16 18 19 21 22 23 24 25 26 27 28 30 32 33 36 38 39 41 43 46 47 47 47 51 52 50 49 49 48 46 44 41 38 39 42 44 41 38 36 34 28 24 22 17 10 5 2 8 14 18 22 24 26 27 29 31 34 39 44 49 52 53 53 53 52 53 55 57 58 59 60 60 62 63 64 64 64 63 62 62 60
9 10 12 13 15 16 18 19 20 21 22 23 25 26 27 29 30 32 34 36 38 40 42 44 47 49 49 51 52 50 48 49 50 51 50 47 45 46 48 47 45 43 42 39 35 32 29 24 18 13 7 1 6 12 19 23 25 26 27 30 35 39 43 48 51 52 53 52 51 52 54 56 57 58 59 61 62 62 62 62 62 61 60 60 60
9 10 12 13 14 16 17 18 19 20 21 23 24 25 27 28 30 31 33 35 36 38 40 42 43 45 47 49 49 49 49 51 53 54 53 50 49 50 51 50 49 47 45 43 40 37 35 31 26 21 15 9 3 4 12 18 23 26 27 30 34 39 42 45 48 50 52 52 51 52 53 55 56 58 59 60 62 62 61 61 61 61 60 61 63
8 9 10 12 13 15 16 17 18 19 21 22 23 25 26 28 29 30 32 33 35 36 37 39 40 41 43 44 45 46 48 51 52 51 50 49 49 50 52 52 52 50 49 47 44 42 40 37 33 29 24 18 12 6 5 11 17 22 26 29 33 37 41 45 47 50 52 53 53 54 55 56 57 58 59 60 61 61 62 62 62 62 63 65 66
7 8 9 11 12 13 15 16 17 19 20 21 23 24 25 26 27 28 29 31 32 34 35 36 37 38 39 40 40 42 44 47 47 48 48 48 49 50 51 52 52 51 50 49 47 46 44 42 39 36 32 26 21 15 9 7 11 17 22 26 30 33 38 42 45 48 52 54 54 55 56 57 57 57 59 60 60 60 60 61 61 61 62 63 64
6 7 8 10 11 12 13 15 16 17 19 20 21 22 23 24 25 26 28 29 30 31 32 33 34 35 36 37 38 39 41 43 45 46 46 47 48 48 49 50 51 51 51 49 48 47 46 45 43 42 39 35 30 24 17 12 10 11 16 21 26 29 33 37 40 43 46 50 53 54 55 56 57 58 60 60 59 58 58 58 59 59 59 59 60
5 6 8 9 10 11 12 14 15 16 17 19 20 21 22 23 24 24 25 27 28 29 30 32 32 33 34 35 36 38 39 42 44 45 46 46 46 46 47 47 48 49 49 49 49 48 47 47 46 45 43 41 38 34 29 22 15 10 10 14 20 25 30 34 38 39 42 45 48 51 53 54 56 57 58 57 57 57 56 56 57 57 58 57 57
5 6 7 8 9 10 12 13 14 15 17 18 19 20 20 21 22 23 24 25 26 27 29 30 31 32 33 34 36 37 39 40 42 43 44 45 45 45 45 45 46 47 48 49 50 49 49 49 48 47 47 46 43 40 37 32 25 17 11 9 12 18 24 29 34 37 40 42 45 47 49 52 54 56 56 56 56 56 56 56 56 56 56 56 55
4 5 6 7 9 10 11 12 13 15 16 16 17 18 19 20 20 21 22 23 24 26 27 28 29 30 32 33 34 35 37 38 39 40 42 43 43 43 43 43 44 45 47 49 49 50 51 51 50 50 50 49 47 44 42 38 33 28 21 14 8 8 13 19 25 30 35 39 42 44 45 47 49 51 52 53 55 55 56 56 56 57 57 56 56
3 4 5 7 8 9 10 12 13 14 15 15 16 17 18 19 20 21 21 22 23 24 25 26 27 28 30 31 32 33 34 35 36 37 39 40 41 41 41 42 42 44 46 48 49 50 51 51 51 51 51 51 50 48 45 42 38 35 30 24 18 11 5 8 14 20 26 32 36 39 41 42 43 45 46 48 50 51 51 52 53 55 56 57 57
3 4 5 6 7 8 9 11 12 13 14 14 15 16 17 18 19 20 20 21 22 23 24 25 26 27 28 29 30 31 31 32 33 34 36 37 38 39 40 40 41 43 45 47 48 49 50 51 52 52 51 52 51 50 47 45 42 38 35 32 27 21 13 6 7 11 16 21 27 30 33 36 37 39 41 42 44 45 46 47 49 51 53 54 54
2 3 5 6 7 8 9 10 11 12 13 13 14 15 16 17 18 19 20 20 21 22 23 24 24 25 26 27 28 28 29 29 30 31 32 34 35 37 38 39 41 42 43 45 47 49 50 52 52 52 51 51 51 51 49 47 45 42 39 35 32 27 22 15 9 8 10 14 18 22 25 28 31 33 35 36 38 40 43 44 46 47 48 48 49
2 3 4 5 6 7 8 9 10 11 12 13 13 14 15 16 17 18 19 20 20 21 22 22 23 24 25 25 26 26 27 27 28 29 30 32 34 35 35 37 39 40 41 43 46 48 49 51 52 53 52 51 50 50 50 49 47 45 42 38 33 29 26 23 18 13 9 11 14 17 20 23 25 28 30 30 31 34 37 39 41 42 43 44 44
2 3 4 5 6 6 7 8 9 10 11 12 12 13 14 15 16 17 18 19 19 20 21 21 22 23 24 24 25 26 26 27 27 28 28 30 31 32 33 35 36 37 39 41 43 45 47 49 51 53 53 52 50 49 49 48 47 45 43 40 37 33 30 28 25 21 15 12 12 13 16 19 22 24 26 27 27 29 31 34 36 36 37 39 40
2 2 3 4 5 6 7 8 8 9 10 11 12 13 13 14 15 16 17 18 19 19 20 20 21 22 22 23 24 24 25 25 25 26 26 27 29 30 32 32 33 35 37 38 39 41 44 46 49 51 52 52 51 49 48 48 46 45 43 42 40 38 35 32 29 26 22 18 15 13 12 15 18 20 22 23 25 27 29 31 32 32 32 33 35
Wind_Direction
326 325 326 327 326 326 327 327 325 323 322 322 322 323 324 324 323 322 321 320 318 317 315 312 310 308 305 301 298 294 291 289 288 285 282 279 275 271 266 264 263 259 254 252 252 255 257 255 255 256 258 261 259 261 262 258 259 253 243 243 240 242 253 238 202 190 191 192 189 185 181 178 177 177 174 172 174 177 177 179 182 184 185 185 186
327 327 327 327 327 328 328 327 326 324 323 323 323 325 326 325 325 323 322 321 318 316 313 311 309 306 302 299 296 293 291 290 289 286 282 280 276 272 270 267 265 260 254 252 250 251 256 257 257 258 259 262 261 259 262 260 258 254 243 240 240 240 251 246 210 190 185 187 187 184 180 179 179 178 176 174 175 177 177 178 181 183 187 188 189
328 328 328 328 329 330 329 327 326 324 324 324 325 326 327 327 327 325 323 321 318 315 311 308 307 303 300 297 293 292 292 289 288 285 283 283 280 275 273 269 267 262 256 253 249 247 253 258 259 259 259 262 262 259 261 259 257 256 244 238 239 240 249 248 214 189 182 182 183 183 180 181 182 181 180 179 179 179 179 180 181 182 186 189 191
329 329 329 329 330 331 330 328 326 325 325 325 327 328 329 329 327 325 322 319 316 313 309 308 307 305 302 299 293 291 291 287 283 280 278 282 281 277 272 265 260 259 256 253 248 245 249 257 260 259 258 260 261 261 262 260 259 257 246 237 237 238 246 244 215 189 180 178 180 183 182 182 184 184 183 181 181 181 181 182 182 183 186 189 191
330 330 330 330 332 332 330 328 326 325 325 327 329 330 330 329 327 324 321 318 315 313 311 311 310 307 305 301 294 290 290 290 286 280 275 273 272 271 270 266 261 256 254 252 248 244 245 251 253 253 255 257 258 261 262 261 261 258 248 238 234 238 245 234 210 190 182 179 179 182 182 183 185 185 184 182 180 181 182 182 183 184 186 188 190
331 332 331 332 333 332 330 328 326 326 327 329 331 332 330 328 326 324 321 318 317 316 314 314 311 309 307 305 300 296 295 292 286 283 280 275 274 275 272 270 266 260 255 254 250 245 244 248 250 251 254 254 254 257 258 261 264 259 248 237 232 242 244 223 202 190 184 181 180 179 179 182 184 183 184 184 181 180 181 182 183 185 186 187 187
333 333 333 333 333 332 330 329 327 328 330 332 333 332 330 328 326 325 323 321 320 319 317 316 313 311 310 308 305 301 300 296 289 285 284 282 284 284 277 270 268 264 259 256 252 246 242 245 249 252 254 252 251 254 256 260 264 260 248 236 234 245 238 211 195 189 185 181 180 178 178 182 183 182 183 185 184 182 182 181 181 184 187 187 184
334 335 334 334 333 331 329 328 328 330 332 333 333 332 331 329 328 327 325 323 322 320 318 316 314 312 311 310 307 304 301 298 293 287 286 289 289 288 283 273 266 263 261 258 255 248 241 241 245 248 251 252 252 253 256 260 263 262 250 236 238 246 228 202 189 186 183 181 180 179 179 180 181 180 181 182 181 182 184 184 182 184 187 186 186
335 335 335 334 332 330 329 329 330 333 333 333 334 334 332 331 330 329 327 325 323 321 319 317 316 314 313 312 310 307 302 298 295 288 285 288 288 286 286 280 270 266 264 261 257 250 242 239 242 246 250 253 253 253 256 259 263 267 256 238 243 244 218 195 185 182 180 180 180 178 177 177 177 177 177 180 182 183 185 185 183 184 185 185 187
336 336 335 333 332 330 329 330 333 334 334 334 335 335 334 333 332 331 329 327 325 323 320 319 317 315 314 313 311 307 303 298 296 291 283 281 277 274 277 276 272 269 268 267 264 254 243 239 240 245 248 251 253 253 257 260 260 267 260 242 246 240 211 191 183 180 179 179 179 177 176 176 177 179 179 183 185 184 184 183 182 182 184 184 185
336 335 334 333 331 330 331 332 334 334 334 336 337 337 336 335 335 334 332 331 329 325 323 321 320 318 317 316 313 307 302 298 296 293 285 277 271 267 268 268 266 264 263 265 267 260 246 239 239 244 246 249 252 253 257 262 260 265 260 242 244 243 211 193 185 181 179 178 178 178 178 178 180 182 182 183 184 185 185 184 182 182 182 183 184
335 334 333 333 332 332 333 333 334 335 335 338 339 338 338 337 338 337 335 334 332 328 325 323 322 321 319 317 315 309 304 302 301 296 288 279 271 267 267 265 264 265 262 259 262 263 253 243 240 242 244 246 251 253 257 264 263 264 261 243 241 246 217 197 190 186 182 180 180 180 182 183 182 182 183 184 185 186 185 184 184 184 184 186 186
335 333 333 334 333 334 334 334 335 336 337 340 341 340 340 340 341 340 337 335 333 330 329 328 326 326 324 322 320 314 309 309 308 303 296 285 274 268 267 265 263 264 263 257 255 254 251 246 242 242 243 244 250 254 256 265 266 262 262 247 240 242 219 200 194 191 189 186 184 185 186 186 184 183 185 186 185 184 184 183 185 187 187 188 188
333 332 333 335 335 334 335 335 336 336 338 342 343 343 342 342 342 342 339 337 335 332 331 331 330 330 328 326 324 319 315 315 314 312 307 293 278 269 266 265 263 263 262 258 255 251 248 247 243 242 243 244 248 253 255 263 266 263 264 250 239 237 217 198 193 194 195 194 191 189 189 189 187 186 187 187 186 185 185 186 187 188 188 187 188
332 332 333 335 336 335 336 336 337 338 340 344 346 345 344 343 344 343 340 338 336 334 333 333 334 333 330 327 325 321 320 320 319 317 312 300 282 270 266 265 263 263 261 258 257 256 253 252 247 243 243 242 246 251 254 260 264 266 269 250 234 232 214 198 193 194 196 197 196 193 190 190 190 188 187 189 190 189 189 188 187 186 186 186 188
331 332 335 336 337 338 337 337 338 340 343 346 348 348 346 344 345 343 340 338 336 334 333 334 335 334 331 328 327 324 322 322 322 320 317 309 291 274 266 264 262 263 261 256 256 255 254 253 249 245 243 242 244 249 252 258 262 265 269 248 230 227 211 199 196 198 199 201 201 198 195 195 193 191 191 191 191 190 188 186 185 185 185 185 188
331 334 337 338 339 339 339 339 340 342 346 349 350 349 347 345 345 343 341 339 337 334 334 334 334 334 332 329 327 327 324 323 325 326 325 317 301 281 269 265 264 265 261 256 255 255 253 253 251 247 244 242 244 248 251 256 259 261 265 251 232 225 209 198 197 201 203 205 204 201 200 199 197 196 195 193 191 190 187 183 183 185 185 185 188
333 336 338 339 341 341 341 342 344 345 349 352 352 350 348 346 345 344 342 339 336 335 335 335 335 336 334 333 332 331 328 328 331 332 329 322 306 287 273 267 268 270 266 258 256 255 254 254 254 251 247 243 245 248 250 253 255 257 260 255 240 225 207 195 193 197 200 201 200 198 198 199 199 197 195 192 192 193 191 187 186 186 186 186 189
335 338 339 341 343 343 343 345 347 349 351 353 353 351 348 347 347 346 343 340 337 336 337 337 336 336 339 340 338 334 331 332 333 331 327 321 309 294 279 270 268 272 270 263 258 258 259 258 256 253 248 245 245 247 249 250 252 254 255 255 247 227 206 194 190 192 193 193 194 193 194 196 197 194 192 192 194 197 197 195 191 187 188 189 190
337 338 340 343 344 344 344 347 349 352 354 354 355 353 350 349 348 347 345 342 340 340 341 339 335 336 341 340 336 333 331 330 331 330 326 320 311 299 284 273 268 270 272 265 258 258 259 260 258 253 249 246 244 246 248 248 249 252 251 245 241 226 206 194 190 192 191 189 191 192 192 193 193 190 188 191 196 199 200 199 196 193 192 191 191
339 340 342 345 345 345 347 350 352 355 356 356 356 355 354 352 350 349 348 345 344 343 343 340 337 339 342 341 336 334 332 328 330 333 335 333 325 311 292 277 269 267 270 268 261 256 255 257 260 259 253 248 244 244 246 245 246 249 245 236 233 227 210 198 192 191 191 189 190 191 191 191 190 188 187 190 196 199 200 200 200 200 197 193 193
340 341 344 346 347 347 350 354 355 357 359 359 357 357 357 354 353 353 351 349 348 346 343 342 341 340 343 343 339 335 334 333 333 335 337 337 333 324 307 287 273 264 264 265 264 260 257 258 261 262 258 250 245 243 243 243 244 245 243 240 237 230 216 203 194 190 190 190 190 190 189 188 188 187 188 191 196 199 200 201 202 201 200 200 200
340 343 345 347 348 350 354 358 359 359 1 2 360 359 359 357 356 356 354 352 351 348 345 345 343 340 343 345 339 334 336 338 337 335 336 336 331 329 326 302 276 261 257 261 264 263 261 259 257 256 255 249 245 242 239 240 242 241 243 246 236 220 214 206 195 189 189 189 189 189 188 188 187 188 190 193 195 198 201 202 202 200 199 201 204
341 345 348 348 350 353 358 2 2 1 3 5 3 2 1 0 360 360 358 356 354 351 349 346 343 344 347 344 336 334 338 341 341 339 338 336 330 325 329 321 285 262 256 258 262 261 258 260 259 255 250 246 243 240 236 236 239 240 243 245 229 213 212 206 196 189 188 188 187 188 189 190 191 193 196 197 196 198 200 201 202 201 199 199 201
344 349 350 350 352 356 1 5 5 3 5 8 8 6 3 3 4 4 2 359 357 355 351 345 343 348 349 341 333 336 341 342 343 343 340 337 333 325 319 317 305 277 261 257 259 260 258 259 259 254 248 245 242 237 233 233 238 241 241 235 220 213 212 204 194 188 187 188 189 191 192 195 197 200 200 198 196 196 197 198 199 199 198 199 200
349 352 351 352 355 358 2 5 7 7 7 9 12 13 8 6 7 8 6 3 1 357 351 344 345 350 349 340 335 339 342 343 344 345 343 339 333 327 320 308 294 289 274 261 258 259 259 255 250 248 247 243 239 233 231 235 240 241 238 227 214 212 210 200 192 188 189 190 193 194 195 197 199 199 197 195 194 196 197 198 198 198 199 200 200
351 353 353 354 357 1 4 5 6 10 10 9 12 16 16 12 11 11 10 6 2 357 351 346 348 352 349 343 341 342 343 344 345 345 342 337 330 324 321 314 296 287 291 279 262 254 252 249 246 245 244 242 240 236 235 240 243 239 234 224 213 210 207 200 194 193 195 195 196 196 195 195 195 195 194 194 196 198 200 200 199 198 199 200 201
353 354 355 357 359 3 6 5 5 9 13 12 12 14 17 18 17 16 15 10 1 353 350 350 352 353 349 346 346 345 343 344 345 343 338 334 328 320 316 314 307 294 290 295 278 257 249 247 244 241 239 238 238 235 234 239 242 236 228 221 211 207 206 202 198 197 199 198 195 193 192 191 192 194 195 195 196 198 200 201 201 200 199 199 200
355 356 357 359 2 5 7 8 6 8 11 14 16 16 18 20 20 19 19 18 8 358 354 355 356 355 353 351 349 346 342 342 342 340 337 334 329 321 313 308 305 296 277 282 279 259 245 241 236 231 229 230 231 231 232 236 238 232 224 221 215 208 205 203 199 198 198 197 193 192 192 192 192 193 194 194 195 197 199 200 200 199 198 199 200
357 359 360 1 3 6 8 8 9 9 9 11 13 16 20 24 25 23 21 21 20 16 13 10 7 3 360 357 353 348 343 341 341 342 342 340 335 328 312 298 296 289 259 249 260 248 238 235 231 226 226 227 226 228 232 235 234 228 223 223 221 211 205 202 201 199 197 196 194 195 195 194 193 192 193 193 194 197 199 200 199 198 198 198 199
359 2 4 3 5 7 8 8 9 10 11 11 10 10 13 18 24 28 27 24 23 22 21 23 24 20 12 4 359 355 352 350 349 348 348 348 348 352 342 314 296 276 237 228 237 237 234 234 234 232 233 233 230 229 232 235 232 227 226 227 222 212 205 202 201 199 196 194 194 195 196 195 194 194 194 194 194 196 197 197 197 198 199 200 199
2 4 6 5 6 9 9 9 9 10 11 12 11 9 9 9 12 19 25 28 27 26 22 22 27 29 25 17 9 5 2 0 358 358 359 357 354 0 5 354 321 258 220 210 220 232 238 240 244 245 243 241 237 233 233 235 232 227 228 231 222 211 206 203 201 198 196 195 194 195 195 196 196 196 196 195 195 195 195 195 197 199 200 200 200
4 7 6 6 8 10 9 10 11 11 11 12 13 12 12 11 10 10 13 18 23 27 27 24 25 30 30 25 19 15 12 10 9 10 12 10 3 360 8 18 24 77 183 186 198 220 231 237 246 251 252 250 246 240 234 234 234 231 231 231 223 212 207 204 201 198 197 195 195 195 195 195 195 195 195 194 195 195 195 196 198 199 199 199 198
6 8 7 7 9 10 10 10 11 12 13 13 13 14 15 15 15 12 11 12 14 18 23 24 25 28 30 27 24 22 21 21 21 20 20 23 21 9 342 342 42 77 106 121 126 154 207 220 229 238 245 249 252 250 244 238 236 235 235 233 225 214 207 203 200 198 197 196 196 195 195 195 195 194 194 193 194 195 196 197 197 197 198 198 196
8 9 7 8 9 10 10 11 11 11 14 14 14 15 16 17 18 18 17 16 15 14 16 20 23 26 28 28 26 25 25 26 27 28 28 30 32 26 6 7 39 52 60 65 66 64 59 65 223 227 230 233 239 246 249 247 242 238 235 232 224 212 205 202 200 198 198 197 196 196 195 196 197 197 196 195 195 195 196 197 198 198 198 196 195
11 12 8 8 11 11 10 10 10 12 14 15 14 15 16 17 19 21 21 21 19 17 15 17 19 23 27 29 27 26 27 28 30 33 36 37 39 42 42 41 41 42 44 47 51 55 53 48 35 254 236 228 226 230 237 243 246 244 237 230 220 210 205 203 201 199 198 198 197 197 196 196 197 198 197 197 197 197 198 198 198 198 197 196 197
12 13 11 10 13 13 12 11 11 13 14 14 14 15 17 18 19 21 22 22 21 19 18 17 17 19 23 27 26 25 26 28 30 33 37 40 43 47 47 44 41 41 41 41 43 46 46 44 41 33 272 238 230 225 224 228 235 240 238 229 218 211 208 206 203 200 199 198 197 197 196 196 197 197 197 197 198 198 199 199 198 198 198 199 200
12 11 12 13 14 14 12 11 12 13 13 14 14 15 17 18 19 21 23 23 22 22 20 20 19 19 22 24 23 21 24 27 29 31 33 36 39 43 44 42 42 42 41 39 40 42 42 40 40 41 36 327 237 229 225 222 222 225 228 224 218 214 211 207 204 202 200 199 198 198 197 197 197 198 198 198 199 198 199 199 198 198 199 200 201
10 9 11 11 12 13 12 11 12 13 13 15 15 16 18 19 19 20 22 24 24 23 23 23 22 22 24 24 21 20 24 28 29 30 32 36 39 41 41 40 41 41 40 39 40 41 39 38 39 41 41 43 55 209 217 218 217 215 216 217 217 214 210 206 203 202 201 200 199 199 199 199 199 200 200 200 201 200 200 200 201 200 200 201 203
6 8 9 9 10 11 12 11 12 13 14 16 17 17 19 20 20 20 21 23 24 25 24 24 24 24 26 27 23 21 25 29 31 30 31 35 39 42 41 39 38 38 38 38 39 39 38 37 38 40 42 44 50 72 155 197 207 207 205 207 210 211 210 207 205 204 202 201 201 201 201 202 202 202 202 203 203 203 202 202 203 203 203 204 206
4 5 7 9 11 12 12 13 14 14 15 17 17 18 19 20 20 20 21 22 24 25 26 26 25 25 26 28 27 26 27 30 31 33 33 35 38 41 42 41 39 38 37 36 36 37 37 37 38 39 41 44 49 57 79 133 175 189 193 196 199 204 207 207 207 206 204 203 202 202 203 204 203 203 204 205 205 205 204 204 204 204 204 205 206
3 3 5 9 12 12 12 14 15 15 15 16 16 18 19 19 20 20 20 21 23 25 26 27 27 26 27 28 28 29 31 32 32 33 34 36 37 40 43 44 42 40 38 36 35 35 36 37 39 40 41 44 47 51 59 79 115 151 173 184 190 194 198 201 203 205 205 204 203 203 204 204 204 206 207 207 206 205 205 205 205 205 205 205 206
359 1 5 8 10 11 12 14 14 13 13 13 14 15 17 17 18 20 21 21 22 23 25 26 26 26 27 28 28 29 32 34 34 33 34 36 37 39 42 44 45 43 41 39 36 36 37 38 39 40 41 44 47 49 52 57 70 97 135 164 178 185 191 196 200 202 202 203 203 204 204 205 205 207 208 207 206 206 206 206 206 207 207 206 206
355 359 3 5 9 12 12 11 11 11 10 10 10 11 13 15 17 18 20 21 22 23 25 26 26 26 26 27 28 29 32 34 35 34 34 36 37 38 41 43 44 45 45 43 40 38 39 39 39 40 42 45 48 50 52 54 58 67 84 124 161 176 185 192 197 200 202 202 203 204 205 206 207 207 208 207 207 207 207 207 207 208 207 207 207
351 355 358 2 7 9 9 8 8 8 8 7 7 8 10 13 15 17 20 21 22 24 25 26 27 28 28 28 28 30 32 34 35 35 35 36 37 38 40 42 44 46 46 45 43 42 41 40 39 41 43 46 47 48 50 52 55 59 63 72 100 150 177 187 193 199 202 203 204 205 206 206 207 207 207 208 208 208 208 208 208 208 208 207 207
339 345 352 359 3 4 5 6 5 4 5 5 5 7 10 12 14 17 20 22 22 23 24 26 28 29 30 30 30 31 32 34 35 35 35 35 36 37 39 41 44 47 47 46 46 45 44 42 40 41 43 46 46 47 48 49 52 54 57 59 63 73 112 174 191 199 203 204 205 206 207 207 207 207 208 208 208 208 208 208 208 208 208 207 208
324 335 343 353 359 2 3 2 2 3 4 4 5 7 10 12 14 17 20 22 23 23 24 25 28 30 31 32 33 33 33 34 36 36 36 35 35 36 37 39 42 46 48 48 48 47 46 44 42 41 44 46 47 46 46 46 48 50 52 53 54 55 61 96 170 193 201 204 206 207 208 209 208 208 209 209 208 207 208 208 209 209 209 208 208
302 320 335 348 356 360 1 1 1 2 4 5 7 8 10 12 15 16 18 21 23 24 24 24 27 30 32 33 33 34 35 35 36 38 38 37 36 36 37 38 40 43 47 49 50 48 47 46 44 42 44 46 47 46 45 44 45 47 48 48 49 50 54 67 97 143 175 193 201 204 206 208 209 209 210 210 210 209 209 210 211 211 210 209 208
289 311 331 343 350 356 359 0 1 3 5 7 8 9 10 12 14 16 18 21 23 25 25 24 25 28 32 34 34 35 36 36 37 38 38 38 37 36 37 38 40 41 44 47 49 49 48 47 45 44 43 44 45 46 45 44 44 44 45 46 47 49 53 59 69 85 120 161 181 191 197 201 204 206 207 208 209 210 210 211 212 212 211 210 209
283 310 325 338 348 354 358 360 2 3 5 8 10 10 10 11 13 15 18 20 23 25 27 26 25 25 28 32 34 35 35 35 36 37 38 38 38 37 37 37 39 40 41 44 48 49 49 47 46 45 43 42 43 45 46 46 44 43 43 44 47 49 52 55 59 65 78 104 136 162 178 188 193 197 199 200 202 204 206 208 209 210 211 211 211
273 305 320 333 346 352 355 359 2 3 4 7 11 13 12 11 12 15 17 19 22 25 28 29 27 26 26 29 32 35 36 36 37 37 38 39 39 38 36 36 37 38 38 40 44 47 49 49 47 45 42 40 40 42 44 46 46 45 45 45 46 49 50 52 55 58 64 74 90 111 139 160 171 178 182 186 190 193 196 200 202 204 205 207 209